Weather History for Gillette, WY

Change the Weather History Date:

Sunday, February 17, 2013

  Actual Average Record
Temperature  
Mean Temperature 33 °F 28 °F  
Max Temperature 39 °F 38 °F 46 °F (2014)
Min Temperature 27 °F 17 °F 18 °F (2014)
Degree Days  
Heating Degree Days 32 38  
Month to date heating degree days 590 657  
Since 1 July heating degree days 4676 5012  
Cooling Degree Days 0 0  
Month to date cooling degree days 0 0  
Year to date cooling degree days 0 0  
Moisture  
Dew Point 26 °F    
Average Humidity 70    
Maximum Humidity 92    
Minimum Humidity 48    
Precipitation  
Precipitation 0.06 in 0.01 in 0.00 in (2014)
Month to date precipitation 0.35 0.26  
Year to date precipitation 0.76 0.65  
Sea Level Pressure  
Sea Level Pressure 29.71 in    
Wind  
Wind Speed 18 mph (WNW)    
Max Wind Speed 28 mph    
Max Gust Speed 36 mph    
Visibility 7 miles    
Events Fog , Snow    
T = Trace of Precipitation, MM = Missing Value Source: NWS Daily Summary

Daily Weather History Graph

Daily Weather History Graph

Search for Another Location

Airport:

Trip Planner

Search our weather history database for the weather conditions in past years. The results will help you decide how hot, cold, wet, or windy it might be!

Date:

Astronomy

Feb. 17, 2013 Rise Set
Actual Time 6:58 AM MST 5:34 PM MST
Civil Twilight 6:28 AM MST 6:04 PM MST
Nautical Twilight 5:54 AM MST 6:38 PM MST
Astronomical Twilight 5:21 AM MST 7:11 PM MST
Moon 10:35 AM MST (2/17) 12:50 AM MST (2/17)
Length of Visible Light 11h 35m
Length of Day
10h 36m
Waxing Crescent, 49% of the Moon is Illuminated
Feb 17
Waxing Crescent
Feb 17
First Quarter
Feb 25
Full
Mar 4
Last Quarter
Mar 11
New

Hourly Weather History & Observations

Time (MST) Temp. Windchill Dew Point Humidity Pressure Visibility Wind Dir Wind Speed Gust Speed Precip Events Conditions
12:53 AM 34.0 °F 24.6 °F 23.0 °F 64% 29.75 in 10.0 mi SW 13.8 mph - N/A   Clear
1:53 AM 36.0 °F 25.6 °F 23.0 °F 59% 29.71 in 10.0 mi SW 18.4 mph - N/A   Clear
2:53 AM 37.0 °F 26.4 °F 23.0 °F 57% 29.67 in 10.0 mi SW 20.7 mph - N/A   Clear
3:53 AM 37.0 °F 26.2 °F 21.9 °F 54% 29.64 in 10.0 mi SW 21.9 mph - N/A   Clear
4:53 AM 35.6 °F 24.8 °F 21.2 °F 56% 29.60 in 10.0 mi SSW 19.6 mph - N/A   Clear
5:53 AM 35.6 °F 25.2 °F 21.2 °F 56% 29.58 in 10.0 mi SW 18.4 mph - N/A   Clear
6:53 AM 37.9 °F 26.8 °F 21.0 °F 51% 29.60 in 10.0 mi WSW 24.2 mph - N/A   Clear
7:53 AM 37.9 °F 27.6 °F 19.9 °F 48% 29.61 in 10.0 mi WSW 20.7 mph - N/A   Clear
8:53 AM 39.0 °F 28.8 °F 21.0 °F 49% 29.63 in 10.0 mi West 21.9 mph - N/A   Clear
9:53 AM 37.0 °F 26.7 °F 25.0 °F 62% 29.66 in 10.0 mi WNW 19.6 mph - N/A   Partly Cloudy
10:53 AM 37.9 °F 29.2 °F 27.0 °F 65% 29.65 in 10.0 mi NW 15.0 mph - N/A   Partly Cloudy
11:53 AM 36.0 °F 25.0 °F 30.0 °F 79% 29.67 in 10.0 mi NW 20.7 mph - N/A   Mostly Cloudy
12:22 PM 35.6 °F 24.8 °F 30.2 °F 81% 29.63 in 9.0 mi NW 19.6 mph 26.5 mph N/A   Overcast
12:28 PM 33.8 °F 23.5 °F 30.2 °F 87% 29.63 in 1.8 mi NW 16.1 mph 26.5 mph 0.00 in Snow Light Snow
12:32 PM 33.8 °F 23.5 °F 30.2 °F 87% 29.63 in 0.8 mi NNW 16.1 mph 21.9 mph 0.01 in Snow Light Snow
12:53 PM 32.0 °F 20.1 °F 30.9 °F 96% 29.70 in 0.8 mi NW 19.6 mph 26.5 mph 0.02 in Snow Light Snow
1:00 PM 32.0 °F 21.2 °F 30.2 °F 93% 29.64 in 0.8 mi NW 16.1 mph 26.5 mph 0.01 in Snow Light Snow
1:11 PM 32.0 °F 21.2 °F 30.2 °F 93% 29.64 in 0.5 mi NNW 16.1 mph - 0.01 in Fog , Snow Snow
1:25 PM 30.2 °F 18.5 °F 30.2 °F 100% 29.64 in 0.8 mi NW 17.3 mph 21.9 mph 0.02 in Snow Light Snow
1:32 PM 32.0 °F 22.1 °F 28.4 °F 87% 29.64 in 1.2 mi NNW 13.8 mph - 0.03 in Snow Light Snow
1:43 PM 32.0 °F 21.6 °F 30.2 °F 93% 29.65 in 0.8 mi NW 15.0 mph 20.7 mph 0.03 in Snow Light Snow
1:48 PM 32.0 °F 22.5 °F 30.2 °F 93% 29.65 in 1.0 mi NW 12.7 mph - 0.03 in Snow Light Snow
1:53 PM 32.0 °F 22.5 °F 30.0 °F 92% 29.70 in 1.0 mi NW 12.7 mph - 0.03 in Snow Light Snow
2:07 PM 32.0 °F 21.6 °F 28.4 °F 87% 29.66 in 3.0 mi WNW 15.0 mph - 0.00 in Snow Light Snow
2:15 PM 32.0 °F 22.1 °F 28.4 °F 87% 29.65 in 1.8 mi WNW 13.8 mph - 0.00 in Snow Light Snow
2:31 PM 32.0 °F 22.5 °F 30.2 °F 93% 29.66 in 3.0 mi WNW 12.7 mph - 0.01 in Snow Light Snow
2:41 PM 32.0 °F 23.0 °F 30.2 °F 93% 29.66 in 9.0 mi WNW 11.5 mph - 0.01 in   Overcast
2:53 PM 33.1 °F 26.1 °F 28.9 °F 85% 29.70 in 10.0 mi WNW 8.1 mph - 0.01 in   Overcast
3:53 PM 34.0 °F 23.8 °F 26.1 °F 73% 29.71 in 10.0 mi NW 16.1 mph 21.9 mph N/A   Scattered Clouds
4:53 PM 33.1 °F 21.2 °F 25.0 °F 72% 29.74 in 10.0 mi NW 20.7 mph 29.9 mph N/A   Mostly Cloudy
5:53 PM 30.0 °F 16.3 °F 25.0 °F 82% 29.80 in 10.0 mi WNW 24.2 mph 28.8 mph N/A   Scattered Clouds
6:53 PM 28.0 °F 17.5 °F 24.1 °F 85% 29.83 in 10.0 mi NW 12.7 mph - N/A   Clear
7:22 PM 28.4 °F 17.0 °F 24.8 °F 86% 29.79 in 10.0 mi NW 15.0 mph - N/A   Mostly Cloudy
7:53 PM 28.9 °F 17.3 °F 25.0 °F 85% 29.84 in 10.0 mi NW 16.1 mph - N/A   Overcast
8:45 PM 28.4 °F 16.2 °F 24.8 °F 86% 29.79 in 6.0 mi WNW 17.3 mph - N/A   Overcast
8:53 PM 28.0 °F 15.7 °F 25.0 °F 88% 29.86 in 4.0 mi WNW 17.3 mph - 0.00 in Snow Light Snow
9:12 PM 28.4 °F 15.8 °F 24.8 °F 86% 29.80 in 2.5 mi NW 18.4 mph 26.5 mph 0.00 in Snow Light Snow
9:22 PM 28.4 °F 15.8 °F 24.8 °F 86% 29.80 in 4.0 mi NW 18.4 mph - 0.00 in Snow Light Snow
10:53 PM 28.0 °F 14.9 °F 24.1 °F 85% 29.89 in 10.0 mi NNW 19.6 mph 26.5 mph 0.00 in   Overcast
11:15 PM 28.4 °F 16.6 °F 24.8 °F 86% 29.82 in 10.0 mi NNW 16.1 mph - N/A   Overcast
11:21 PM 28.4 °F 16.6 °F 24.8 °F 86% 29.83 in 10.0 mi NNW 16.1 mph - 0.00 in Snow Light Snow
11:29 PM 28.4 °F 16.2 °F 24.8 °F 86% 29.83 in 9.0 mi NNW 17.3 mph 24.2 mph 0.00 in Snow Light Snow
11:35 PM 26.6 °F 13.4 °F 24.8 °F 93% 29.83 in 8.0 mi NNW 18.4 mph 27.6 mph 0.00 in Snow Light Snow
11:43 PM 26.6 °F 13.8 °F 24.8 °F 93% 29.84 in 8.0 mi NNW 17.3 mph 23.0 mph 0.00 in Snow Light Snow
11:53 PM 27.0 °F 15.2 °F 24.1 °F 89% 29.91 in 9.0 mi NNW 15.0 mph - 0.00 in   Overcast